Regional Weather Roundup
Issued by NWS

Home | Current Version | Previous Version | Text Only | Print | Product List | Glossary Off
Versions: 1 2 3 4 5 6 7 8 9 10 11 12 13 14 15 16 17 18 19 20 21 22 23 24 25 26 27 28 29 30 31 32 33 34 35 36 37 38 39 40 41 42 43 44 45 46 47 48 49 50

000
ASUS43 KLMK 180510
RWRKY
KENTUCKY REGIONAL WEATHER ROUNDUP
NATIONAL WEATHER SERVICE LOUISVILLE KY
100 AM EDT THU SEP 18 2014

NOTE "FAIR" INDICATES FEW OR NO CLOUDS BELOW 12,000 FEET
WITH NO SIGNIFICANT WEATHER AND/OR OBSTRUCTIONS TO VISIBILITY.

KYZ001>023-026-027-061>063-070>075-180600-
WESTERN AND SOUTH CENTRAL KENTUCKY

CITY           SKY/WX    TMP DP  RH WIND       PRES   REMARKS
PADUCAH        FAIR      62  57  83 CALM      29.97F
HENDERSON      CLOUDY    63  55  77 NE5       30.00S
OWENSBORO      CLOUDY    64  58  81 NE5       30.01R
HOPKINSVILLE   CLOUDY    61  61 100 N3        29.99S
BOWLING GREEN  CLOUDY    61  57  87 CALM      30.00S
GLASGOW        CLOUDY    60  59  95 CALM      30.00R
$$

KYZ024-025-028>034-038-045-046-053-180600-
NORTH CENTRAL KENTUCKY

CITY           SKY/WX    TMP DP  RH WIND       PRES   REMARKS
LOUISVILLE/SDF MOCLDY    59  52  77 CALM      30.01S
LOUISVILLE/LOU MOCLDY    58  54  86 CALM      30.02S
FORT KNOX      MOCLDY    59  53  82 N7        30.00S
$$

KYZ035>037-039>044-047>052-055>060-089>105-180600-
NORTHEAST KENTUCKY

CITY           SKY/WX    TMP DP  RH WIND       PRES   REMARKS
LEXINGTON      FAIR      57  52  83 CALM      30.02R
COVINGTON      FAIR      53  47  79 CALM      30.02S
FRANKFORT      FAIR      54  52  93 NW3       30.01R
$$

KYZ054-064>069-076>088-106>120-180600-
SOUTHEAST KENTUCKY

CITY           SKY/WX    TMP DP  RH WIND       PRES   REMARKS
JACKSON        FAIR      58  53  84 CALM      29.99S
LONDON         FAIR      58  54  86 CALM      30.00S
SOMERSET       NOT AVBL
MIDDLESBORO    FAIR      55  54  97 CALM      30.00R
MONTICELLO     FAIR      56  55  96 CALM      30.01S
$$



USA.gov is the U.S. government's official web portal to all federal, state and local government web resources and services.